When you browse on this site, cookies collect data to enhance your experience and personalize the content and advertising you see.
Visit our Privacy Policy to learn more. By continuing to use the site, you agree to this use of cookies and data.
  • In Austria
  • List of Countries
  • For 7 days
  • Water Temperature
  • Satellite Maps
  • Weather Map
  • News
  • Weather Widgets
  • user-avatar
    Login

    Hourly Weather Tallahassee

    Today, 23 April, Tuesday

    Time Temperature Precipitation Wind Pressure Humidity
    00:00 +16°C° 0 mm 1 mps 762 mmHg 63%
    01:00 +16°C° 0 mm 1 mps 762 mmHg 64%
    02:00 +16°C° 0 mm 1 mps 762 mmHg 66%
    03:00 +16°C° 0 mm 1 mps 761 mmHg 67%
    04:00 +16°C° 0 mm 1 mps 761 mmHg 68%
    05:00 +16°C° 0 mm 1 mps 761 mmHg 69%
    06:00 +18°C° 0 mm 1 mps 761 mmHg 70%
    07:00 +21°C° 0 mm 1 mps 762 mmHg 61%
    08:00 +24°C° 0 mm 1 mps 762 mmHg 51%
    09:00 +28°C° 0 mm 1 mps 762 mmHg 41%
    10:00 +29°C° 0 mm 1 mps 762 mmHg 37%
    11:00 +29°C° 0 mm 0 mps 762 mmHg 34%
    12:00 +31°C° 0 mm 0 mps 762 mmHg 30%
    13:00 +33°C° 0 mm 1 mps 761 mmHg 30%
    14:00 +32°C° 0 mm 1 mps 760 mmHg 30%
    15:00 +32°C° 0 mm 1 mps 760 mmHg 30%
    16:00 +29°C° 0 mm 1 mps 760 mmHg 38%
    17:00 +27°C° 0 mm 2 mps 760 mmHg 45%
    18:00 +24°C° 0 mm 2 mps 760 mmHg 52%
    19:00 +23°C° 0 mm 2 mps 760 mmHg 55%
    20:00 +21°C° 0 mm 2 mps 760 mmHg 58%
    21:00 +21°C° 0 mm 1 mps 760 mmHg 60%
    22:00 +20°C° 0 mm 1 mps 760 mmHg 59%
    23:00 +20°C° 0 mm 1 mps 760 mmHg 58%

    Tomorrow, 24 April, Wednesday

    Time Temperature Precipitation Wind Pressure Humidity
    00:00 +20°C° 0 mm 1 mps 760 mmHg 58%
    01:00 +20°C° 0 mm 1 mps 760 mmHg 58%
    02:00 +20°C° 0 mm 1 mps 759 mmHg 58%
    03:00 +20°C° 0 mm 1 mps 759 mmHg 58%
    04:00 +20°C° 0 mm 1 mps 759 mmHg 61%
    05:00 +18°C° 0 mm 0 mps 759 mmHg 64%
    06:00 +18°C° 0 mm 0 mps 760 mmHg 67%
    07:00 +19°C° 0 mm 0 mps 760 mmHg 63%
    08:00 +20°C° 0 mm 0 mps 760 mmHg 59%
    09:00 +22°C° 0 mm 0 mps 760 mmHg 55%
    10:00 +26°C° 0 mm 1 mps 760 mmHg 48%
    11:00 +28°C° 0 mm 1 mps 760 mmHg 42%
    12:00 +30°C° 0 mm 1 mps 760 mmHg 36%
    13:00 +30°C° 0 mm 1 mps 759 mmHg 35%
    14:00 +31°C° 0 mm 2 mps 759 mmHg 35%
    15:00 +31°C° 0 mm 2 mps 758 mmHg 34%
    16:00 +28°C° 0 mm 2 mps 758 mmHg 43%
    17:00 +26°C° 0 mm 2 mps 758 mmHg 51%
    18:00 +24°C° 0 mm 2 mps 758 mmHg 60%
    19:00 +23°C° 0 mm 2 mps 758 mmHg 64%
    20:00 +21°C° 0 mm 1 mps 759 mmHg 69%
    21:00 +20°C° 0 mm 1 mps 759 mmHg 74%
    22:00 +20°C° 0 mm 1 mps 759 mmHg 76%
    23:00 +19°C° 0 mm 1 mps 758 mmHg 78%

    Day after tomorrow, 25 April, Thursday

    Time Temperature Precipitation Wind Pressure Humidity
    00:00 +17°C° 0 mm 0 mps 758 mmHg 80%
    01:00 +16°C° 0 mm 0 mps 758 mmHg 80%
    02:00 +18°C° 0 mm 1 mps 757 mmHg 80%
    03:00 +18°C° 0 mm 1 mps 757 mmHg 80%
    04:00 +18°C° 0 mm 1 mps 757 mmHg 79%
    05:00 +19°C° 0 mm 1 mps 758 mmHg 79%
    06:00 +19°C° 0 mm 1 mps 758 mmHg 78%
    07:00 +22°C° 0 mm 1 mps 759 mmHg 68%
    08:00 +25°C° 0 mm 1 mps 759 mmHg 58%
    09:00 +28°C° 0 mm 1 mps 760 mmHg 48%
    10:00 +29°C° 0 mm 2 mps 759 mmHg 45%
    11:00 +30°C° 0 mm 2 mps 759 mmHg 42%
    12:00 +31°C° 0 mm 3 mps 759 mmHg 39%
    13:00 +30°C° 0 mm 3 mps 758 mmHg 41%
    14:00 +30°C° 0 mm 3 mps 757 mmHg 43%
    15:00 +29°C° 0 mm 4 mps 756 mmHg 44%
    16:00 +27°C° 0 mm 3 mps 756 mmHg 54%
    17:00 +26°C° 0 mm 3 mps 756 mmHg 63%
    18:00 +24°C° 0 mm 2 mps 756 mmHg 72%
    19:00 +23°C° 0 mm 2 mps 757 mmHg 77%
    20:00 +21°C° 0 mm 2 mps 757 mmHg 82%
    21:00 +21°C° 0 mm 1 mps 757 mmHg 87%
    22:00 +21°C° 0 mm 1 mps 757 mmHg 89%
    23:00 +21°C° 0 mm 1 mps 757 mmHg 90%

    26 April, Friday

    Time Temperature Precipitation Wind Pressure Humidity
    00:00 +21°C° 0 mm 1 mps 756 mmHg 92%
    01:00 +21°C° 0 mm 1 mps 756 mmHg 93%
    02:00 +22°C° 0 mm 1 mps 755 mmHg 95%
    03:00 +22°C° 0 mm 1 mps 755 mmHg 97%
    04:00 +22°C° 0.7 mm 1 mps 755 mmHg 97%
    05:00 +22°C° 0.7 mm 1 mps 755 mmHg 97%
    06:00 +21°C° 0.7 mm 2 mps 755 mmHg 97%
    07:00 +21°C° 3.7 mm 2 mps 755 mmHg 96%
    08:00 +21°C° 3.7 mm 2 mps 755 mmHg 95%
    09:00 +23°C° 3.7 mm 2 mps 755 mmHg 93%
    10:00 +24°C° 3 mm 2 mps 755 mmHg 88%
    11:00 +26°C° 3 mm 2 mps 754 mmHg 83%
    12:00 +27°C° 3 mm 2 mps 754 mmHg 79%
    13:00 +27°C° 1 mm 2 mps 754 mmHg 77%
    14:00 +28°C° 1 mm 2 mps 753 mmHg 76%
    15:00 +28°C° 1 mm 1 mps 753 mmHg 75%
    16:00 +26°C° 1.7 mm 1 mps 753 mmHg 80%
    17:00 +25°C° 1.7 mm 1 mps 754 mmHg 86%
    18:00 +22°C° 1.7 mm 0 mps 754 mmHg 91%
    19:00 +23°C° 0.4 mm 1 mps 754 mmHg 93%
    20:00 +22°C° 0.4 mm 1 mps 755 mmHg 95%
    21:00 +22°C° 0.4 mm 1 mps 755 mmHg 97%
    22:00 +21°C° 0 mm 1 mps 755 mmHg 97%
    23:00 +20°C° 0 mm 2 mps 755 mmHg 98%

    27 April, Saturday

    Time Temperature Precipitation Wind Pressure Humidity
    00:00 +20°C° 0 mm 2 mps 755 mmHg 98%
    01:00 +20°C° 0 mm 2 mps 755 mmHg 98%
    02:00 +19°C° 0 mm 2 mps 755 mmHg 98%
    03:00 +19°C° 0 mm 2 mps 755 mmHg 98%
    04:00 +19°C° 0 mm 2 mps 756 mmHg 97%
    05:00 +19°C° 0 mm 3 mps 756 mmHg 96%
    06:00 +19°C° 0 mm 3 mps 757 mmHg 95%
    07:00 +21°C° 0 mm 3 mps 757 mmHg 85%
    08:00 +23°C° 0 mm 4 mps 758 mmHg 76%
    09:00 +26°C° 0 mm 4 mps 758 mmHg 66%
    10:00 +26°C° 0 mm 4 mps 758 mmHg 66%
    11:00 +26°C° 0 mm 4 mps 758 mmHg 65%
    12:00 +27°C° 0 mm 3 mps 757 mmHg 64%
    13:00 +27°C° 0 mm 3 mps 757 mmHg 62%
    14:00 +28°C° 0 mm 3 mps 757 mmHg 59%
    15:00 +28°C° 0 mm 2 mps 756 mmHg 57%
    16:00 +27°C° 0 mm 2 mps 756 mmHg 62%
    17:00 +26°C° 0 mm 2 mps 757 mmHg 67%
    18:00 +25°C° 0 mm 2 mps 757 mmHg 73%
    19:00 +24°C° 0 mm 2 mps 757 mmHg 75%
    20:00 +23°C° 0 mm 2 mps 758 mmHg 77%
    21:00 +21°C° 0 mm 2 mps 759 mmHg 80%
    22:00 +20°C° 0 mm 2 mps 758 mmHg 81%
    23:00 +20°C° 0 mm 2 mps 758 mmHg 83%

    28 April, Sunday

    Time Temperature Precipitation Wind Pressure Humidity
    00:00 +19°C° 0 mm 2 mps 758 mmHg 85%
    01:00 +18°C° 0 mm 2 mps 758 mmHg 88%
    02:00 +18°C° 0 mm 2 mps 758 mmHg 90%
    03:00 +18°C° 0 mm 1 mps 758 mmHg 93%
    04:00 +18°C° 0 mm 2 mps 758 mmHg 92%
    05:00 +18°C° 0 mm 2 mps 759 mmHg 92%
    06:00 +18°C° 0 mm 2 mps 759 mmHg 91%
    07:00 +21°C° 0 mm 2 mps 760 mmHg 81%
    08:00 +25°C° 0 mm 2 mps 760 mmHg 72%
    09:00 +27°C° 0 mm 2 mps 760 mmHg 62%
    10:00 +29°C° 0 mm 2 mps 760 mmHg 56%
    11:00 +30°C° 0 mm 2 mps 759 mmHg 50%
    12:00 +31°C° 0 mm 2 mps 758 mmHg 44%
    13:00 +32°C° 0 mm 2 mps 758 mmHg 43%
    14:00 +32°C° 0 mm 2 mps 758 mmHg 43%
    15:00 +32°C° 0 mm 2 mps 757 mmHg 43%
    16:00 +30°C° 0 mm 2 mps 758 mmHg 51%
    17:00 +29°C° 0 mm 2 mps 758 mmHg 59%
    18:00 +27°C° 0 mm 1 mps 758 mmHg 67%
    19:00 +26°C° 0 mm 2 mps 759 mmHg 70%
    20:00 +25°C° 0 mm 2 mps 759 mmHg 72%
    21:00 +24°C° 0 mm 2 mps 760 mmHg 74%
    22:00 +24°C° 0 mm 2 mps 760 mmHg 77%
    23:00 +23°C° 0 mm 2 mps 760 mmHg 79%
    Show more